Simultaneous Nadir Overpasses (SNOs) Predictions

Prediction of SNOs between NPP and GCOM-C Satellite Orbit:

Table of predicted SNOs for the next 14.0 days since TLE Epoch: 10/26/2024
Index Date (NPP) Time (NPP) Lat,Lon (NPP) SZA (NPP ) Date (GCOM-C) Time (GCOM-C) Lat,Lon (GCOM-C) SZA (GCOM-C ) Distance(km) Time Diff (sec)
1 11/03/2024 08:51:26 -70.03,-136.52 94.82 11/03/2024 08:52:34 -70.00,-134.44 94.83 79.21 68
2 11/03/2024 09:42:00 69.37, 31.75 84.54 11/03/2024 09:43:13 69.35, 32.02 84.53 10.63 73
3 11/03/2024 10:32:41 -69.24,-160.74 95.59 11/03/2024 10:33:45 -69.25,-160.75 95.58 1.02 64
4 11/03/2024 11:23:27 69.22, 6.60 84.41 11/03/2024 11:24:12 69.24, 6.63 84.43 2.94 45
5 11/03/2024 12:14:10 -69.19, 173.95 95.61 11/03/2024 12:14:43 -69.19, 173.93 95.62 1.05 33
6 11/03/2024 13:04:56 69.17, -18.71 84.38 11/03/2024 13:05:10 69.18, -18.70 84.39 1.53 14
7 11/03/2024 13:55:39 -69.14, 148.65 95.64 11/03/2024 13:55:41 -69.13, 148.61 95.65 2.23 2
8 11/03/2024 14:46:25 69.12, -44.02 84.35 11/03/2024 14:46:08 69.12, -44.01 84.35 0.12 17
9 11/03/2024 15:37:08 -69.09, 123.34 95.67 11/03/2024 15:36:38 -69.12, 123.36 95.64 3.15 30
10 11/03/2024 16:27:54 69.07, -69.32 84.33 11/03/2024 16:27:06 69.06, -69.33 84.31 1.29 48
11 11/03/2024 17:18:37 -69.05, 98.03 95.69 11/03/2024 17:17:36 -69.06, 98.04 95.68 1.77 61
12 11/03/2024 18:09:20 68.86, -94.41 84.14 11/03/2024 18:08:07 68.84, -94.87 84.11 18.61 73
13 11/03/2024 18:59:55 -68.41, 73.51 96.30 11/03/2024 18:58:45 -68.41, 71.95 96.32 63.82 70



Historial Predications of SNOs between NPP and GCOM-C
